Regional Weather Roundup
Issued by NWS

Home | Current Version | Previous Version | Text Only | Print | Product List | Glossary On
Versions: 1 2 3 4 5 6 7 8 9 10 11 12 13 14 15 16 17 18 19 20 21 22 23 24 25 26 27 28 29 30 31 32 33 34 35 36 37 38 39 40 41 42 43 44 45 46 47 48 49 50
000
ASUS44 KLIX 030812
RWRLA
LOUISIANA WEATHER ROUNDUP
NATIONAL WEATHER SERVICE NEW ORLEANS LA
300 AM CDT SUN MAY 03 2015

NOTE: "FAIR" INDICATES FEW OR NO CLOUDS BELOW 12,000 FEET WITH NO
      SIGNIFICANT WEATHER AND/OR OBSTRUCTIONS TO VISIBILITY.
      SKY/WX - SKY CONDITION AND SIGNIFICANT WEATHER.
      TMP - AIR TEMPERATURE.    DP   - DEWPOINT TEMPERATURE.
      RH  - RELATIVE HUMIDITY.  PRES - PRESSURE.
      HX  - HEAT INDEX.         WCI  - WIND CHILL INDEX.

*  THESE STATIONS ARE NOT NWS OR FAA STATIONS AND ARE NOT UNDER
   NWS QUALITY CONTROL.

LAZ040-048-061>063-065-066-069-030900-
SOUTHEAST LOUISIANA

CITY           SKY/WX    TMP DP  RH WIND       PRES   REMARKS
N.O. AUDUBON   NOT AVBL
N.O. INTL ARPT MOCLDY    67  60  78 SE6       30.05S
N.O. LAKEFRONT CLEAR     69  60  73 S5        30.06S
SLIDELL        CLEAR     58  57  97 CALM      30.06S
BATON ROUGE    CLEAR     61  59  93 CALM      30.04S
BOOTHVILLE     CLEAR     66  58  75 SE3       30.06F
BELLE CHASSE   CLEAR     61  59  93 CALM      30.05S
BOGALUSA*        N/A     56  54  90 N3        30.08S
GALLIANO*      MOSUNNY   64  62  91 CALM      30.06S
NEW ROADS*     PTSUNNY   64  61  91 CALM      30.05R
GONZALES*      FAIR      64  64 100 CALM      30.04S
HAMMOND*       CLEAR     59  55  88 CALM      30.07S
HOUMA*         MOCLDY    64  64  97 CALM      30.05S
PORT FOURCHON* MOSUNNY   73  59  60 S5        30.08S

$$

LAZ041-044-053-054-030900-
SOUTHWEST LOUISIANA

CITY           SKY/WX    TMP DP  RH WIND       PRES   REMARKS
LAKE CHARLES   CLEAR     61  59  93 CALM      30.03S
LAFAYETTE      CLEAR     64  62  93 CALM      30.04S FOG
PATTERSON      CLEAR     63  61  94 CALM      30.06S
SALT POINT       N/A     66  64  93 CALM      30.03S
NEW IBERIA     CLEAR     63  60  90 SE3       30.05S
CHENAULT AIRPK CLEAR     62  60  94 CALM      30.03S

$$

LAZ027-028-030900-
CENTRAL LOUISIANA

CITY           SKY/WX    TMP DP  RH WIND       PRES   REMARKS
FORT POLK      CLEAR     60  58  91 SE1       30.02S
ALEXANDRIA INT CLEAR     61  58  90 CALM      30.02S
ALEXANDRIA     PTCLDY    59  57  93 CALM      30.04S FOG

$$

LAZ001-002-030900-
NORTHWEST LOUISIANA

CITY           SKY/WX    TMP DP  RH WIND       PRES   REMARKS
SHREVEPORT     CLEAR     63  56  78 CALM      30.01R
BARKSDALE AFB  CLEAR     60  55  81 S5        30.01S
DTN SHREVEPORT CLEAR     63  54  72 SE5       30.01S

$$

LAZ014-016-030900-
NORTHEAST LOUISIANA

CITY           SKY/WX    TMP DP  RH WIND       PRES   REMARKS
MONROE         CLEAR     56  54  93 CALM      30.04S
TALLULAH       CLEAR     53  51  93 CALM      30.04F

$$




USA.gov is the U.S. government's official web portal to all federal, state and local government web resources and services.